When you browse on this site, cookies collect data to enhance your experience and personalize the content and advertising you see.
Visit our Privacy Policy to learn more. By continuing to use the site, you agree to this use of cookies and data.
  • In Österreich
  • Länderverzeichnis
  • Für 7 Tage
  • Wassertemperatur
  • Wetterkarte
  • News
  • Widgets
  • user-avatar
    Anmelden

    Stündliche Wetter Kchulna

    Heute, 29 Februar, Samstag

    Zeit Temperatur Niederschläge Wind Luftdruck Luftfeuchtigkeit
    00:00 +19°C° 0 mm 0 m/S 759 mmHg 51%
    01:00 +19°C° 0 mm 0 m/S 758 mmHg 51%
    02:00 +19°C° 0 mm 0 m/S 757 mmHg 51%
    03:00 +18°C° 0 mm 0 m/S 757 mmHg 51%
    04:00 +20°C° 0 mm 1 m/S 757 mmHg 51%
    05:00 +20°C° 0 mm 1 m/S 757 mmHg 52%
    06:00 +19°C° 0 mm 1 m/S 758 mmHg 56%
    07:00 +22°C° 0 mm 1 m/S 758 mmHg 50%
    08:00 +24°C° 0 mm 1 m/S 759 mmHg 44%
    09:00 +27°C° 0 mm 2 m/S 759 mmHg 37%
    10:00 +29°C° 0 mm 1 m/S 759 mmHg 33%
    11:00 +31°C° 0 mm 1 m/S 759 mmHg 28%
    12:00 +32°C° 0 mm 2 m/S 759 mmHg 25%
    13:00 +34°C° 0 mm 2 m/S 758 mmHg 23%
    14:00 +34°C° 0 mm 2 m/S 757 mmHg 22%
    15:00 +35°C° 0 mm 2 m/S 757 mmHg 21%
    16:00 +32°C° 0 mm 2 m/S 756 mmHg 23%
    17:00 +30°C° 0 mm 2 m/S 756 mmHg 26%
    18:00 +29°C° 0 mm 1 m/S 756 mmHg 29%
    19:00 +27°C° 0 mm 1 m/S 757 mmHg 32%
    20:00 +26°C° 0 mm 1 m/S 757 mmHg 35%
    21:00 +25°C° 0 mm 1 m/S 758 mmHg 38%
    22:00 +24°C° 0 mm 1 m/S 758 mmHg 41%
    23:00 +23°C° 0 mm 1 m/S 758 mmHg 44%

    Morgen, 1 März, Sonntag

    Zeit Temperatur Niederschläge Wind Luftdruck Luftfeuchtigkeit
    00:00 +22°C° 0 mm 1 m/S 758 mmHg 47%
    01:00 +22°C° 0 mm 1 m/S 758 mmHg 47%
    02:00 +22°C° 0 mm 1 m/S 757 mmHg 47%
    03:00 +22°C° 0 mm 1 m/S 757 mmHg 47%
    04:00 +21°C° 0 mm 1 m/S 757 mmHg 48%
    05:00 +21°C° 0 mm 1 m/S 757 mmHg 48%
    06:00 +21°C° 0 mm 1 m/S 757 mmHg 49%
    07:00 +23°C° 0 mm 1 m/S 758 mmHg 44%
    08:00 +26°C° 0 mm 1 m/S 759 mmHg 39%
    09:00 +28°C° 0 mm 1 m/S 759 mmHg 34%
    10:00 +30°C° 0 mm 1 m/S 759 mmHg 30%
    11:00 +33°C° 0 mm 1 m/S 759 mmHg 27%
    12:00 +35°C° 0 mm 1 m/S 758 mmHg 23%
    13:00 +35°C° 0 mm 1 m/S 757 mmHg 22%
    14:00 +35°C° 0 mm 1 m/S 757 mmHg 22%
    15:00 +36°C° 0 mm 2 m/S 756 mmHg 21%
    16:00 +34°C° 0 mm 1 m/S 756 mmHg 24%
    17:00 +32°C° 0 mm 1 m/S 756 mmHg 27%
    18:00 +28°C° 0 mm 0 m/S 755 mmHg 29%
    19:00 +29°C° 0 mm 1 m/S 756 mmHg 36%
    20:00 +27°C° 0 mm 2 m/S 756 mmHg 42%
    21:00 +26°C° 0 mm 3 m/S 757 mmHg 48%
    22:00 +25°C° 0 mm 3 m/S 757 mmHg 52%
    23:00 +24°C° 0 mm 2 m/S 757 mmHg 56%

    übermorgen, 2 März, Montag

    Zeit Temperatur Niederschläge Wind Luftdruck Luftfeuchtigkeit
    00:00 +23°C° 0 mm 2 m/S 757 mmHg 60%
    01:00 +23°C° 0 mm 2 m/S 756 mmHg 60%
    02:00 +23°C° 0 mm 2 m/S 756 mmHg 61%
    03:00 +23°C° 0 mm 2 m/S 756 mmHg 61%
    04:00 +21°C° 0 mm 2 m/S 756 mmHg 61%
    05:00 +21°C° 0 mm 2 m/S 756 mmHg 62%
    06:00 +21°C° 0 mm 2 m/S 757 mmHg 62%
    07:00 +24°C° 0 mm 2 m/S 757 mmHg 55%
    08:00 +27°C° 0 mm 1 m/S 758 mmHg 48%
    09:00 +29°C° 0 mm 1 m/S 759 mmHg 42%
    10:00 +31°C° 0 mm 1 m/S 758 mmHg 36%
    11:00 +33°C° 0 mm 1 m/S 758 mmHg 31%
    12:00 +36°C° 0 mm 1 m/S 758 mmHg 26%
    13:00 +37°C° 0 mm 2 m/S 757 mmHg 23%
    14:00 +37°C° 0 mm 2 m/S 756 mmHg 21%
    15:00 +38°C° 0 mm 2 m/S 755 mmHg 18%
    16:00 +36°C° 0 mm 2 m/S 755 mmHg 22%
    17:00 +34°C° 0 mm 2 m/S 755 mmHg 27%
    18:00 +31°C° 0 mm 2 m/S 755 mmHg 31%
    19:00 +30°C° 0.1 mm 3 m/S 755 mmHg 37%
    20:00 +29°C° 0.1 mm 4 m/S 756 mmHg 43%
    21:00 +27°C° 0.1 mm 5 m/S 757 mmHg 48%
    22:00 +27°C° 0 mm 4 m/S 756 mmHg 49%
    23:00 +26°C° 0 mm 3 m/S 756 mmHg 49%

    3 März, Dienstag

    Zeit Temperatur Niederschläge Wind Luftdruck Luftfeuchtigkeit
    00:00 +26°C° 0 mm 3 m/S 756 mmHg 50%
    01:00 +25°C° 0 mm 2 m/S 756 mmHg 55%
    02:00 +24°C° 0 mm 2 m/S 756 mmHg 60%
    03:00 +23°C° 0 mm 2 m/S 755 mmHg 66%
    04:00 +23°C° 0 mm 2 m/S 755 mmHg 69%
    05:00 +22°C° 0 mm 1 m/S 756 mmHg 72%
    06:00 +22°C° 0 mm 1 m/S 756 mmHg 75%
    07:00 +24°C° 0 mm 1 m/S 756 mmHg 67%
    08:00 +26°C° 0 mm 1 m/S 757 mmHg 58%
    09:00 +29°C° 0 mm 2 m/S 758 mmHg 50%
    10:00 +31°C° 0 mm 2 m/S 758 mmHg 43%
    11:00 +34°C° 0 mm 2 m/S 757 mmHg 37%
    12:00 +36°C° 0 mm 3 m/S 757 mmHg 30%
    13:00 +36°C° 0 mm 3 m/S 756 mmHg 28%
    14:00 +37°C° 0 mm 4 m/S 755 mmHg 26%
    15:00 +38°C° 0 mm 4 m/S 754 mmHg 24%
    16:00 +36°C° 0 mm 4 m/S 754 mmHg 27%
    17:00 +35°C° 0 mm 5 m/S 753 mmHg 30%
    18:00 +33°C° 0 mm 5 m/S 753 mmHg 34%
    19:00 +30°C° 0 mm 5 m/S 754 mmHg 42%
    20:00 +28°C° 0 mm 5 m/S 754 mmHg 50%
    21:00 +26°C° 0 mm 5 m/S 755 mmHg 59%
    22:00 +26°C° 0 mm 4 m/S 755 mmHg 65%
    23:00 +25°C° 0 mm 3 m/S 755 mmHg 71%

    4 März, Mittwoch

    Zeit Temperatur Niederschläge Wind Luftdruck Luftfeuchtigkeit
    00:00 +24°C° 0 mm 3 m/S 755 mmHg 77%
    01:00 +24°C° 0 mm 2 m/S 755 mmHg 80%
    02:00 +23°C° 0 mm 2 m/S 754 mmHg 82%
    03:00 +23°C° 0 mm 1 m/S 754 mmHg 84%
    04:00 +23°C° 0 mm 1 m/S 755 mmHg 87%
    05:00 +22°C° 0 mm 1 m/S 755 mmHg 89%
    06:00 +21°C° 0 mm 2 m/S 755 mmHg 91%
    07:00 +24°C° 0 mm 2 m/S 756 mmHg 82%
    08:00 +26°C° 0 mm 3 m/S 757 mmHg 73%
    09:00 +28°C° 0 mm 3 m/S 757 mmHg 64%
    10:00 +31°C° 0 mm 3 m/S 757 mmHg 53%
    11:00 +34°C° 0 mm 4 m/S 757 mmHg 43%
    12:00 +36°C° 0 mm 4 m/S 757 mmHg 33%
    13:00 +36°C° 0 mm 5 m/S 756 mmHg 32%
    14:00 +36°C° 0 mm 6 m/S 755 mmHg 31%
    15:00 +36°C° 0 mm 6 m/S 754 mmHg 30%
    16:00 +33°C° 0.7 mm 6 m/S 754 mmHg 40%
    17:00 +30°C° 0.7 mm 5 m/S 754 mmHg 49%
    18:00 +27°C° 0.7 mm 5 m/S 754 mmHg 59%
    19:00 +26°C° 1.1 mm 4 m/S 755 mmHg 64%
    20:00 +26°C° 1.1 mm 4 m/S 756 mmHg 69%
    21:00 +25°C° 1.1 mm 3 m/S 756 mmHg 74%
    22:00 +25°C° 0 mm 3 m/S 756 mmHg 78%
    23:00 +24°C° 0 mm 3 m/S 756 mmHg 83%

    5 März, Donnerstag

    Zeit Temperatur Niederschläge Wind Luftdruck Luftfeuchtigkeit
    00:00 +24°C° 0 mm 3 m/S 756 mmHg 87%
    01:00 +24°C° 0 mm 3 m/S 756 mmHg 89%
    02:00 +23°C° 0 mm 2 m/S 756 mmHg 92%
    03:00 +23°C° 0 mm 2 m/S 755 mmHg 94%
    04:00 +23°C° 0 mm 1 m/S 755 mmHg 94%
    05:00 +23°C° 0 mm 1 m/S 755 mmHg 95%
    06:00 +22°C° 0 mm 1 m/S 755 mmHg 95%
    07:00 +24°C° 0 mm 2 m/S 756 mmHg 86%
    08:00 +26°C° 0 mm 2 m/S 757 mmHg 77%
    09:00 +28°C° 0 mm 2 m/S 758 mmHg 68%
    10:00 +30°C° 0 mm 2 m/S 757 mmHg 59%
    11:00 +32°C° 0 mm 2 m/S 757 mmHg 50%
    12:00 +35°C° 0 mm 3 m/S 757 mmHg 41%
    13:00 +35°C° 0 mm 3 m/S 756 mmHg 40%
    14:00 +36°C° 0 mm 3 m/S 755 mmHg 38%
    15:00 +36°C° 0 mm 3 m/S 754 mmHg 37%
    16:00 +33°C° 1 mm 3 m/S 754 mmHg 47%
    17:00 +29°C° 1 mm 3 m/S 754 mmHg 57%
    18:00 +27°C° 1 mm 4 m/S 754 mmHg 68%
    19:00 +26°C° 1.2 mm 3 m/S 755 mmHg 71%
    20:00 +25°C° 1.2 mm 2 m/S 756 mmHg 75%
    21:00 +24°C° 1.2 mm 2 m/S 757 mmHg 79%
    22:00 +24°C° 0.2 mm 2 m/S 757 mmHg 80%
    23:00 +25°C° 0.2 mm 2 m/S 757 mmHg 80%
    Mehr zeigen